Location: Unspecified
(0.0000°N, 0.0000°E)
Time: 13:35:46
(UTC+00:00)

A-11 Canister half - Visible Passes

Search period start: 09 December 2016 00:00
Search period end: 19 December 2016 00:00
Orbit: 1527 x 1682 km, 47.3° (Epoch: 09 December)

Date Brightness Start Highest point End Pass type
(mag) Time Alt. Az. Time Alt. Az. Time Alt. Az.
09 Dec 10.9 01:24:32 17° SSE 01:24:32 17° SSE 01:26:14 10° SSE visible
10 Dec 11.1 01:03:56 13° SSE 01:03:56 13° SSE 01:04:45 10° SSE visible
18 Dec 10.7 19:30:35 10° N 19:31:29 12° NNE 19:31:29 12° NNE visible
